Volver al catálogo

QIANFAN-98

ActivoComunicacionesPO
NORAD 66040·PAYLOAD·🇨🇳 China

Lanzado Oct 17, 2025 desde Taiyuan Satellite Launch Center

Loading…

Próximos Pases (próximas 24 horas)

TLE

ActualizadoSource: Space-Track

Época: Sep 14, 2026, 07:59 UTC

1 66040U 25233H   26257.33306357  .00000072  00000-0  93211-4 0  9992
2 66040  89.0039  33.8985 0001527 109.0106 251.1210 13.51028566 45362

Sigue QIANFAN-98 en tiempo real con AllMySat

Download on the App Store